Weather Roundup
Issued by NWS

Home | Current Version | Previous Version | Graphics & Text | Print | Product List | Glossary Off
Versions: 1 2 3 4 5 6 7 8 9 10 11 12 13 14 15 16 17 18 19 20 21 22 23 24 25 26 27 28 29 30 31 32 33 34 35 36 37 38 39 40 41 42 43 44 45 46 47 48 49 50

824
NZUS93 KARX 072210
HRRWXR

CURRENT HOURLY OBSERVATIONS ACROSS
MUCH OF THE UPPER MISSISSIPPI VALLEY
NATIONAL WEATHER SERVICE LA CROSSE WI
400 PM CST SUN FEB 07 2016


...SOUTHEAST MINNESOTA...


CITY           SKY/WX    TMP DP  RH WIND       PRES   REMARKS
ROCHESTER      CLOUDY    35  28  75 W18       29.66R WCI  24
ROCHESTER/MAYO CLOUDY    38  28  68 W12G22    29.66R WCI  30
WINONA         CLOUDY    39  28  65 NW10G22   29.66S WCI  32
AUSTIN         NOT AVBL
ALBERT LEA     CLOUDY    36  30  80 W12       29.70R WCI  27
DODGE CENTER   CLOUDY    36  28  75 W17G26    29.66R WCI  25
PRESTON        PTSUNNY   35  27  73 W16       29.68S WCI  25
OWATONNA       CLOUDY    36  30  80 W17       29.68R WCI  25
FARIBAULT      CLOUDY    36  30  80 W12G21    29.67R WCI  27
$$

...ELSEWHERE IN MINNESOTA...


CITY           SKY/WX    TMP DP  RH WIND       PRES   REMARKS
MINNEAPOLIS    CLOUDY    37  29  72 W15       29.62S WCI  28
INTNL FALLS    MIX PCPN  26  23  88 NW15      29.54R FOG     WCI  14
DULUTH         LGT SNOW  31  27  85 NW15G24   29.47R FOG     WCI  20
RED WING       CLOUDY    39  27  60 W15       29.62S WCI  31
REDWOOD FALLS  FLURRIES  34  30  85 NW20G25   29.72R WCI  23
MANKATO        CLOUDY    36  28  75 W18G25    29.69R WCI  25
WORTHINGTON    CLOUDY    32  25  74 NW23G35   29.78R WCI  19
FAIRMONT       CLOUDY    36  27  69 W17       29.73R WCI  25
$$

...SOUTHWEST WISCONSIN...


CITY           SKY/WX    TMP DP  RH WIND       PRES   REMARKS
LA CROSSE      CLOUDY    39  25  57 W14G23    29.66R WCI  31
PRAIRIE DU CHI SUNNY     40  26  56 W14       29.72S WCI  32
BOSCOBEL       MOSUNNY   41  25  53 W14G22    29.71R
LONE ROCK      SUNNY     40  24  53 W18G30    29.69R WCI  31
PLATTEVILLE    SUNNY     39  28  65 W16       29.71S WCI  30
FORT MC COY    PTSUNNY   40  27  60 W10G18    29.65S WCI  33
CAMP DOUGLAS   MOSUNNY   39  29  68 W16G22    29.63R WCI  30
VIROQUA        MOCLDY    37  26  65 W22       29.66S WCI  26
WIS DELLS      SUNNY     39  26  58 SW9G17    29.64R WCI  33
$$

...ELSEWHERE IN WISCONSIN...


CITY           SKY/WX    TMP DP  RH WIND       PRES   REMARKS
MILWAUKEE      MOSUNNY   44  30  57 W18G24    29.67R
MADISON        PTSUNNY   40  27  59 SW7       29.66R
GREEN BAY      CLOUDY    39  30  70 SW6       29.61R WCI  35
EAU CLAIRE     CLOUDY    38  25  59 W13G22    29.58S WCI  30
BLACK RVR FLS  CLOUDY    39  24  53 W13G23    29.62S WCI  32
MEDFORD        CLOUDY    36  28  72 SW7       29.54R WCI  30
WAUSAU         CLOUDY    39  27  62 W10       29.55R WCI  32
WIS RAPIDS     CLOUDY    40  24  53 W15       29.61R WCI  32
MARSHFIELD     CLOUDY    39  25  57 W12       29.57R WCI  32
RICE LAKE      FLURRIES  36  30  80 W10G16    29.58R WCI  28
$$

...NORTHEAST IOWA...


CITY           SKY/WX    TMP DP  RH WIND       PRES   REMARKS
WATERLOO       MOSUNNY   38  28  67 W16       29.76S WCI  29
DUBUQUE        SUNNY     37  29  72 W15       29.74S WCI  28
DECORAH        PTSUNNY   37  28  70 W8G18     29.69S WCI  31
MASON CITY     CLOUDY    36  29  75 W21       29.75R WCI  25
CHARLES CITY   MOSUNNY   37  32  81 W20       29.73S WCI  27
OELWEIN        SUNNY     37  30  75 W20       29.75S WCI  27
$$

...ELSEWHERE IN IOWA...


CITY           SKY/WX    TMP DP  RH WIND       PRES   REMARKS
DES MOINES     PTSUNNY   40  25  55 W21       29.85S WCI  30
IOWA CITY      MOSUNNY   42  30  62 W18G30    29.84R
FORT DODGE     PTSUNNY   36  28  75 W14G20    29.81S WCI  27
MARSHALLTOWN   SUNNY     38  28  67 W15G24    29.80S WCI  29
CEDAR RAPIDS   SUNNY     40  32  73 W21       29.79S WCI  30
$$

...NORTHERN ILLINOIS...


CITY           SKY/WX    TMP DP  RH WIND       PRES   REMARKS
CHICAGO-OHARE  CLOUDY    42  32  67 W15G23    29.72S
CHICAGO-MIDWAY CLOUDY    45  31  58 SW18G24   29.74S
MOLINE         SUNNY     45  27  49 W15       29.80R
ROCKFORD       MOSUNNY   43  28  55 W13G23    29.75R
PEORIA         SUNNY     47  28  47 W14G23    29.82R
$$

NOTE: "FAIR" INDICATES FEW OR NO CLOUDS BELOW 12,000 FEET WITH NO
SIGNIFICANT WEATHER AND/OR OBSTRUCTIONS TO VISIBILITY. WIND
SPEEDS ARE IN MILES-PER-HOUR.




USA.gov is the U.S. government's official web portal to all federal, state and local government web resources and services.